www.pogodaiklimat.ru

Погода и климат >> Архив погоды >> Россия >> Нижегородская область >> Выкса


ПОГОДА в Выксе

  • Прогноз погоды в Выксе
  • Монитор погоды в Выксе
  • Климат города

АРХИВ ПОГОДЫ в Выксе

Время (UTC), дата Ветер
(напр.,м/с)
 
Видим.   Явления Облачность Т
(С)
Тd
(С)
f
(%)
Тe
(С)
Тes
(С)
Комфортность P
(гПа)
Po
(гПа)
Тmin
(С)
Tmax
(С)
R
(мм)
R24
(мм)
S
(см)
09 17.11 З 4-6
{7}
10 км 9/9 600 м
[Sc]
+2.3 -1.0 79 -2 -2 1021.2 1006.9
12 17.11 ЮЗ 2-4
{7}
10 км 9/9 600 м
[Cu med, cong]
+2.0 -0.5 83 -1 -1 1021.8 1007.5
15 17.11 ЮЗ 2-5
{7}
10 км 9/9 600 м
[Cu med, cong]
+1.8 -1.0 82 -1 -1 1021.5 1007.2 +2.3
18 17.11 З 5-11
{11}
10 км 9/9 600 м
[Cu med, cong]
+0.4 -2.9 78 -5 -5 1020.8 1006.4
21 17.11 Ю 2-6
{8}
10 км 9/9 600 м
[Cu med, cong]
0.0 -2.7 82 -4 -4 1020.8 1006.4
00 18.11 ЮЗ 3-6
{8}
10 км 10/10 400 м
[Sc]
+0.5 -2.1 83 -4 -4 1020.0 1005.6
03 18.11 ЮЗ 3-6
{7}
10 км 10/0
[Ac trans]
+0.8 -2.1 81 -4 -4 1018.8 1004.5 -0.1
06 18.11 ЮЗ 3-7
{8}
10 км 10/0 400 м
[As op]
+1.4 -0.8 85 -3 -3 1018.4 1004.1
09 18.11 ЮЗ 3-6
{8}
10 км 10/0 400 м
[As op]
+1.9 -0.5 84 -2 -2 1018.4 1004.1
12 18.11 ЮЗ 2-4
{5}
10 км 10/10 360 м
[Sc]
+2.3 -0.2 84 -1 -1 1018.9 1004.6
15 18.11 Ю 2-4
{5}
10 км 10/10 360 м
[Sc]
+2.0 -0.2 85 -1 -1 1018.6 1004.3 +2.3
18 18.11 Ю 2-4
{5}
10 км 10/10 300 м
[Sc]
+1.5 -0.7 85 -2 -2 1018.6 1004.3
21 18.11 Ю 2-3
{5}
10 км 10/10 300 м
[Sc]
+1.6 -0.6 85 -2 -2 1018.6 1004.3
00 19.11 Ю 2-4
{5}
10 км 10/10 300 м
[Sc]
+1.6 +0.2 90 -2 -2 1018.4 1004.1
03 19.11 Ю 2-5
{6}
10 км слабый дождь 10/10 270 м
[Sc]
+1.1 +0.6 96 -3 -3 1017.4 1003.1 +1.0 0.6
06 19.11 Ю 3-6
{7}
10 км {дождь} 10/10 450 м
[Sc]
+1.0 -0.4 90 -4 -4 1016.9 1002.6
09 19.11 Ю 2-4
{6}
10 км слабый снег 10/0 270 м
[As op]
+1.0 -0.1 92 -3 -2 1016.2 1002.0
12 19.11 Ю 3-6
{7}
10 км слабый дождь {снег} 10/10 300 м
[Sc]
+1.6 +0.2 90 -3 -3 1015.1 1000.9
15 19.11 Ю 2-3
{7}
10 км слабый дождь 10/10 330 м
[Sc]
+1.5 +0.4 92 -2 -2 1013.9 999.7 +1.6 0.4
18 19.11 Ю 2-4
{5}
10 км слабый снег {дождь} 10/10 270 м
[Sc]
+0.6 +0.1 96 -3 -3 1012.4 998.1
21 19.11 Ю 2-5
{5}
10 км {снег} 10/0
[As op]
+1.5 +1.0 96 -2 -2 1011.4 997.3
00 20.11 Ю 2-4
{6}
10 км {снег} 10/10 300 м
[Sc]
+2.0 +1.2 94 -1 -1 1011.3 997.2
03 20.11 ЮЗ 2-4
{5}
10 км слабый дождь 10/0
[As op]
+2.6 +1.8 94 -1 -1 1010.7 996.7 +0.5 3
06 20.11 З 1-3
{6}
10 км {дождь} 10/10 300 м
[Sc]
+2.4 +1.1 91 +1 +1 1011.1 997.1
09 20.11 З 2-3
{4}
10 км 10/0
[Ac As]
+2.4 +0.8 89 -1 -0 1012.7 998.6
12 20.11 СЗ 1-1
{3}
10 км 10/0
[Ac As]
+2.1 +0.2 87 0 +1 1013.4 999.2
15 20.11 штиль 0
{2}
10 км 10/10 400 м
[Sc]
+1.7 +0.3 90 +1 +1 1013.6 999.4 +2.6 0.0
18 20.11 СВ 3-4
{4}
10 км слабый снег 10/10 360 м
[Sc]
+1.6 +0.2 90 -3 -3 1012.2 998.0
21 20.11 СВ 3-5
{6}
10 км слабый снег 10/10 330 м
[Sc]
+0.5 -0.3 94 -4 -4 1010.6 996.5
00 21.11 СВ 2-5
{6}
10 км слабый дождь {снег} 10/10 300 м
[Sc]
+0.6 +0.1 96 -3 -3 1006.9 992.8
03 21.11 СВ 2-3
{5}
10 км сильный дождь 10/10 300 м
[Sc]
+0.8 +0.3 96 -3 -3 1004.9 990.8 +0.4 17
06 21.11 СВ 1-1
{4}
2000 м сильный дождь 10/0 270 м
[As op]
+1.6 +1.1 96 -0 -0 1003.8 989.7
09 21.11 Ю 2-4
{4}
1000 м слабая морось {дождь} 10/10 180 м
[St]
+4.7 +4.0 95 +2 +2 1003.4 989.5
12 21.11 Ю 2-4
{6}
10 км слабая морось 10/10 240 м
[Sc]
+4.2 +3.5 95 +1 +1 1003.5 989.5
15 21.11 Ю 2-5
{6}
10 км {морось} 10/10 240 м
[Sc]
+4.1 +3.4 95 +1 +1 1003.6 989.6 +4.7 5
18 21.11 Ю 3-5
{5}
2000 м слабая морось 10/10 180 м
[St]
+4.1 +3.4 95 0 0 1003.3 989.3
21 21.11 З 2-4
{5}
10 км {морось} 10/10 270 м
[Sc]
+1.1 +0.6 96 -3 -3 1003.8 989.7
00 22.11 З 1-1
{4}
10 км слабый снег {морось} 10/10 270 м
[Sc]
+0.1 -0.5 96 -2 -2 1004.3 990.1
03 22.11 штиль 0
{2}
2000 м слабый снег 10/10 360 м
[Sc]
0.0 -0.6 96 -1 -1 1003.8 989.7 -0.1 4 1
06 22.11 штиль 0
{2}
2000 м слабый снег 10/0 180 м
[As op]
0.0 -0.3 98 -1 -1 1002.7 988.4
09 22.11 С 2-2
{3}
2000 м дымка {снег} 10/0 150 м
[As op]
+0.1 -0.5 96 -4 -4 1002.5 988.2
12 22.11 С 3-3
{4}
2000 м слабый снег 10/0 150 м
[As op]
0.0 -0.3 98 -5 -5 1002.5 988.2
15 22.11 СЗ 3-4
{4}
2000 м слабый снег 10/0 180 м
[As op]
0.0 -0.3 98 -5 -5 1002.5 988.6 +0.1 2
18 22.11 СЗ 4-7
{8}
10 км слабый снег 10/10 300 м
[Sc]
-0.8 -1.1 98 -7 -7 1005.4 991.2
21 22.11 С 5-7
{9}
10 км {снег} 10/10 300 м
[Sc]
-1.8 -2.7 94 -8 -8 1005.5 991.4
00 23.11 С 5-9
{10}
10 км {снег} 10/10 330 м
[Sc]
-2.8 -4.1 91 -10 -10 1006.7 992.4
03 23.11 С 6-10
{11}
10 км слабый снег 10/0 180 м
[As op]
-3.6 -5.0 90 -11 -11 1009.3 994.8 -3.7 1 2
06 23.11 С 6-9
{11}
10 км {снег} 10/0 420 м
[As op]
-4.1 -5.3 91 -12 -12 1010.3 995.8 -4.1
09 23.11 С 8-12
{12}
10 км {снег} 10/0
[As op]
-4.2 -6.1 87 -13 -13 1011.7 997.2
12 23.11 С 5-7
{12}
10 км {снег} 10/0
[As op]
-4.6 -6.2 89 -12 -12 1014.0 999.5
15 23.11 С 6-9
{9}
10 км 8/0
[Ac trans]
-5.0 -6.7 88 -13 -13 1016.3 1001.8 -3.6 0.7
18 23.11 С 5-7
{10}
10 км 8/0
[Ac trans]
-5.4 -6.8 90 -13 -13 1018.2 1003.5
21 23.11 С 4-6
{7}
10 км слабый снег 10/0
[As op]
-5.6 -7.0 90 -12 -12 1019.9 1005.2
00 24.11 С 3-4
{8}
10 км {снег} 10/0
[As op]
-5.6 -7.0 90 -11 -11 1022.9 1008.1
03 24.11 С 2-3
{6}
10 км 10/0
[As op]
-5.5 -6.9 90 -10 -10 1023.5 1008.7 -5.7 0.8 3
06 24.11 С 3-4
{5}
10 км 9/9 600 м
[Cu hum]
-5.8 -7.6 87 -11 -11 1023.7 1009.0 -5.9

 

Местоположение метеостанции Выкса (Нижегородская область, Россия): широта 55.33 долгота 42.12 высота над уровнем моря 114 м.

В архиве по умолчанию представлена погода в Выксе за последнюю неделю. Архивные данные за месяц целиком и за предыдущие месяцы, начиная с января 2011 года, Вы можете получить, выбрав интересующий диапазон дат из раскрывающегося списка и нажав кнопку "Ввод!".

Внимание! Время в таблицах - всемирное. Для получения местного времени необходимо прибавить поправку, которая в Выксе равна 3 ч.

Смотрите также архив погоды в соседних городах и на ближайших метеорологических станциях:

Погода в Муроме (Владимирская область, Россия) (31 км)
Погода в Елатьме (Рязанская область, Россия) (48 км)
Погода в Павлово (Нижегородская область, Россия) (90 км)
Погода в Вязниках (Владимирская область, Россия) (97 км)
Погода в Гусь-Хрустальный (Владимирская область, Россия) (97 км)
Погода в Туме (Рязанская область, Россия) (102 км)
Погода в Арзамасе (Нижегородская область, Россия) (105 км)
Погода в Темникове (Мордовия, Россия) (105 км)
Погода в Сасово (Рязанская область, Россия) (109 км)
Погода в Дальнем Константиново (Нижегородская область, Россия) (134 км)

Пояснения к столбцам:

Ветер - указаны скорость ветра в м/с - средняя за 10 мин, порывы в срок и между сроками (в фигурных скобках) и направление, откуда дует ветер: С - северный, СВ - северо-восточный, В - восточный, ЮВ - юго-восточный, Ю - южный, ЮЗ - юго-западный, З - западный, СЗ - северо-западный.
Видимость - горизонтальная дальность видимости в метрах или километрах. При видимости от 1 до 10 км при отсутствии осадков обычно наблюдается дымка, при ухудшении видимости до 1 км и менее - туман. В сухую погоду видимость может ухудшаться дымом, пылью или мглою.
Явления - указаны атмосферные явления, наблюдавшиеся в срок или в последний час перед сроком; фигурными скобками обозначены явления, наблюдавшиеся между сроками (за 1-3 часа до срока); квадратными скобками обозначены град или гололедные отложения с указанием их диаметра в мм.
Облачность - указаны через наклонную черту общая и нижняя облачность в баллах и высота нижней границы облаков в метрах; квадратными скобками обозначены формы облаков: Ci - перистые, Cs - перисто-слоистые, Cc - перисто-кучевые, Ac - высококучевые, As - высокослоистые, Sc - слоисто-кучевые, Ns - слоисто-дождевые, Cu - кучевые, Cb - кучево-дождевые. Подробнее классификацию облаков см. в Атласе облаков (PDF).
T - Температура воздуха - температура, измеренная на высоте 2 м над землей.
Td - Температура точки росы - температура, при понижении до которой содержащийся в воздухе водяной пар достигнет насыщения.
f - Относительная влажность воздуха - влажноcть воздуха, измеренная на высоте 2 м над землей.
Te - Эффективная температура - температура, которую ощущает одетый по сезону человек в тени. Характеристика душности погоды. При расчете учитывается влияние влажности воздуха и скорости ветра на теплоощущения человека.
Tes - Эффективная температура на солнце - температура, которую ощущает человек, с поправкой на солнечный нагрев. Характеристика знойности погоды. Зависит от высоты солнца над горизонтом, облачности и скорости ветра. Ночью, в пасмурную погоду, а также при ветре 12 м/с и более поправка равна нулю.
P - Атмосферное давление - приведенное к уровню моря атмосферное давление.
Po - Атмосферное давление - измеренное на уровне метеостанции атмосферное давление.
Tmin - Минимальная температура - минимум температуры воздуха на высоте 2 м над землей.
Tmax - Максимальная температура - максимум температуры воздуха на высоте 2 м над землей.
R - Количество осадков - Количество выпавших осадков за период времени, мм. При наведении курсора мыши на число - период времени, за который выпало указанное количество осадков.
R24 - Количество осадков - Количество выпавших осадков за 24 часа, мм.
S - Снежный покров - Высота снежного покрова, см. При наведении курсора мыши на число - состояние снежного покрова и степень покрытия местности в баллах.